Home > Weather > Barsinghausen > Past weeks

Flag for Germany Past Weather in Barsinghausen, Lower Saxony, Germany — Yesterday and Last 2 Weeks

Now
54 °F

Cool.


Feels Like: 51 °F
Forecast: 52 / 66 °F
Wind: 8 mph from Southwest

Location: Wunstorf Airport

Current Time: Jun 27, 2016 at 2:28:32 AM

Latest Report: Jun 27, 2016 at 1:20 AM


Visibility: 4 mi

Pressure: 30.04 "Hg

Humidity: 88%

Dew Point: 50 °F

Location of BarsinghausenLocation

Past Weather in Barsinghausen — Graph

°F

Barsinghausen Temperature Yesterday

Maximum temperature yesterday: 70 °F (at 5:20 PM)
Minimum temperature yesterday: 55 °F (at 3:20 AM)
Average temperature yesterday: 62 °F

High & Low Weather Summary for the Past Weeks

 TemperatureHumidityPressure
High90 °F (Jun 23, 3:20 PM)94% (Jun 13, 2:20 AM)30.21 "Hg (Jun 13, 2:20 AM)
Low48 °F (Jun 20, 3:20 AM)43% (Jun 20, 12:20 PM)29.45 "Hg (Jun 14, 5:20 PM)
Average64 °F77%29.86 "Hg
* Reported Jun 12 12:20 AM — Jun 27 12:20 AM, Barsinghausen, Weather by CustomWeather, © 2016

Note: Actual official high and low records may vary slightly from our data, if they occured in-between our weather recording intervals... More about our weather records

Advertising

Barsinghausen Weather History for the Previous 24 Hours

Scroll right to see more
 ConditionsComfort  
Time TempWeatherWind HumidityBarometerVisibility
12:20 AM
Mon, Jun 27
57 °FCool.7 mph82%30.04 "Hg4 mi
11:20 PM
Sun, Jun 26
57 °FCool.7 mph82%30.04 "Hg4 mi
10:20 PM57 °FCool.7 mph82%30.04 "Hg4 mi
9:20 PM61 °FCool.5 mph72%30.01 "Hg4 mi
8:20 PM63 °FMild.9 mph73%30.01 "Hg4 mi
7:20 PM63 °FMild.16 mph73%30.01 "Hg2 mi
6:20 PM68 °FMild.9 mph53%30.01 "Hg5 mi
5:20 PM70 °FMild.12 mph50%30.01 "Hg3 mi
4:20 PM68 °FMild.10 mph53%30.01 "Hg4 mi
3:20 PM68 °FMild.14 mph53%30.01 "Hg4 mi
2:20 PM68 °FMild.14 mph53%30.01 "Hg4 mi
1:20 PM66 °FMild.13 mph52%30.01 "Hg5 mi
12:20 PM66 °FMild.15 mph56%30.01 "Hg5 mi
11:20 AM64 °FMild.13 mph60%30.01 "HgN/A
10:20 AM63 °FMild.14 mph64%30.01 "Hg6 mi
9:20 AM61 °FCool.9 mph72%30.01 "Hg6 mi
8:20 AM59 °FCool.13 mph82%30.01 "Hg5 mi
7:20 AM57 °FCool.14 mph88%30.01 "Hg4 mi
6:20 AM57 °FCool.9 mph94%30.01 "Hg2 mi
5:20 AM57 °FCool.10 mph88%29.98 "Hg3 mi
4:20 AM57 °FCool.9 mph94%29.98 "Hg3 mi
3:20 AM55 °FCool.1 mph94%29.98 "Hg3 mi
2:20 AM57 °FCool.12 mph82%29.95 "Hg4 mi
Weather by CustomWeather, © 2016

See weather overviewHow to use our weather pages